Погода в Нальчике

Россия / Кабардино-Балкарская Республика     43°29′06″N   43°36′25″E
темп.,
°C
ветер,
м/с
пор.,
м/с
влажн.,
%
обл.,
%
осадки,
мм/ч
давл.,
гПа
погр.,
м
21 января, пт
пт2100:00−12юз32714 0.0 102539
03:00−11юз3266100 0.0 102540
06:00−8юз226790 0.0 102322
09:00−5ююз23625 0.0 102263
12:000вюв23440 0.0 1019449
15:00+1юв24620 0.0 1018409
18:00−4юз32763 0.0 102027
21:00−4юз32710 0.0 101924
22 января, сб
сб2200:00−4юз326896 0.0 101827
03:00−3юз32685 0.0 101623
06:00−3юз326999 0.0 101319
09:000зюз2270100 0.0 101323
12:00+2ссв236766 0.0 1013272
15:00+1св227593 0.0 1013289
18:00−5юз228938 0.0 101613
21:00−6юз2286100 0.0 101616
23 января, вс
вс2300:00−6зюз2285100 0.0 101620
03:00−7зюз228672 0.0 101529
06:00−7юз228638 0.0 101542
09:00−4ю008226 0.0 1013201
12:00−1всв218596 0.0 1011379
15:00−1всв2183100 0.0 1011472
18:00−3ссз1192100 0.0 101447
21:00−5ююз1193100 0.0 101513
24 января, пн
пн2400:00−5юз1190100 0.0 101634
03:00−6зюз118990 0.0 101625
06:00−5юз118823 0.0 101616
09:00−4зюз009074 0.0 1016114
12:00−2всв118779 0.0 1015448
15:00−1св1186100 0.1 1015475
18:00−2зюз119184 0.0 101726
21:00−5зюз22848 0.0 101917
25 января, вт
вт2500:00−5зюз327734 0.0 102128
03:00−3зюз337482 0.1 102053
06:00−3зюз2182100 0.0 102121
09:00−1зсз1186100 0.3 102184
12:000зюз1294100 2.9 1021146
15:00−1с2498100 7.9 1024359
18:00−2вюв1299100 1.8 102685
21:00−2в2399100 5.1 1027181